Home > Weather > Unnao > Past weeks

Flag for India Weather for the Past 2 Weeks in Unnao, Uttar Pradesh, India

Now
82 °F

Haze.


Feels Like: 86 °F
Forecast: 85 / 105 °F
Wind: 12 mph from East

Location: Lucknow / Amausi

Current Time: May 3, 2016 at 5:29:46 AM

Latest Report: May 3, 2016 at 5:00 AM


Visibility: 2 mi

Pressure: 29.62 "Hg

Humidity: 66%

Dew Point: 70 °F

Location of UnnaoLocation

Historic Weather in Unnao — Graph

°F

Unnao Temperature Yesterday

Maximum temperature yesterday: 111 °F (at 2:30 PM)
Minimum temperature yesterday: 77 °F (at 5:30 AM)
Average temperature yesterday: 96 °F

High & Low Weather Summary for the Past Weeks

 TemperatureHumidityPressure
High113 °F (Apr 30, 1:00 PM)79% (Apr 18, 6:30 AM)29.77 "Hg (Apr 18, 6:30 AM)
Low72 °F (Apr 25, 6:00 AM)7% (Apr 29, 3:30 PM)29.45 "Hg (Apr 23, 4:00 AM)
Average95 °F23%29.63 "Hg
* Reported Apr 18 4:00 AM — May 3 4:00 AM, Unnao, Weather by CustomWeather, © 2016

Note: Actual official high and low records may vary slightly from our data, if they occured in-between our weather recording intervals... More about our weather records

Advertising

Unnao Weather History for the Previous 24 Hours

Scroll right to see more
 ConditionsComfort  
Time TempWeatherWind HumidityBarometerVisibility
4:00 AM
Tue, May 3
84 °FHaze.12 mph62%29.62 "Hg2 mi
3:00 AM84 °FHaze.6 mph62%29.62 "Hg2 mi
2:00 AM84 °FHaze.6 mph62%29.62 "Hg2 mi
1:00 AM86 °FHaze.5 mph59%29.65 "Hg2 mi
12:00 AM88 °FHaze.6 mph55%29.62 "Hg2 mi
11:00 PM
Mon, May 2
90 °FHaze.8 mph49%29.65 "Hg2 mi
10:00 PM93 °FHaze.8 mph39%29.62 "Hg2 mi
9:00 PM95 °FHaze.7 mph36%29.62 "Hg2 mi
8:30 PM95 °FHaze.7 mph34%29.59 "Hg2 mi
8:00 PM97 °FHaze.7 mph32%29.59 "Hg2 mi
7:30 PM99 °FHaze.9 mph33%29.59 "Hg2 mi
7:00 PM99 °FHaze.5 mph31%29.56 "Hg2 mi
6:30 PM100 °FHaze.3 mph27%29.56 "Hg2 mi
6:00 PM104 °FHaze.6 mph24%29.56 "Hg2 mi
5:30 PM106 °FHaze.7 mph23%29.56 "Hg2 mi
5:00 PM108 °FHaze.7 mph20%29.56 "Hg2 mi
4:30 PM109 °FHaze.9 mph19%29.56 "Hg2 mi
4:00 PM109 °FHaze.7 mph19%29.56 "Hg2 mi
3:30 PM109 °FHaze.7 mph18%29.56 "Hg2 mi
3:00 PM111 °FHaze.5 mph15%29.59 "Hg2 mi
2:30 PM111 °FHaze.5 mph15%29.59 "Hg2 mi
2:00 PM109 °FHaze.2 mph16%29.59 "Hg2 mi
1:30 PM108 °FHaze.2 mph18%29.62 "Hg2 mi
1:00 PM106 °FHaze.5 mph18%29.62 "Hg2 mi
12:30 PM104 °FHaze.5 mph19%29.68 "Hg2 mi
12:00 PM104 °FHaze.6 mph20%29.65 "Hg2 mi
11:30 AM102 °FHaze.5 mph20%29.65 "Hg2 mi
10:30 AM99 °FHaze.5 mph21%29.65 "Hg2 mi
10:00 AM97 °FHaze.5 mph25%29.68 "Hg2 mi
9:30 AM95 °FHaze.5 mph25%29.68 "Hg2 mi
9:00 AM93 °FHaze.5 mph26%29.65 "Hg2 mi
8:30 AM93 °FHaze.3 mph24%29.65 "Hg2 mi
7:30 AM86 °FScattered clouds.3 mph25%29.62 "Hg2 mi
7:00 AM84 °FScattered clouds.5 mph27%29.62 "Hg2 mi
6:30 AM77 °FScattered clouds.No wind34%29.59 "Hg2 mi
6:00 AM77 °FScattered clouds.No wind32%29.59 "Hg2 mi
5:30 AM77 °FPassing clouds.No wind34%29.56 "Hg2 mi
5:00 AM79 °FHaze.No wind34%29.56 "Hg2 mi
Weather by CustomWeather, © 2016

See weather overviewHow to use our weather pages